FENGYUN 1C DEB

Satellite information

Favourite Embed

Satellite Type and Status

DEBRISIN ORBIT

Key statistics

Satellite FENGYUN 1C DEB at a glance.

Uptime

9554

Days in orbit

Revolutions

≈ 14.5

Per day

Orbit

SSO

Sun Synchronous Orbit

Inclination

97.2

Latest

Satellite identification and parameters

Extended collection of information and parameters for FENGYUN 1C DEB.

Object identification

Identified? True

Debris? True

Object name: FENGYUN 1C DEB

International designator: 1999-025ZC

Object number (NORAD): 30291

Object ID (CCSDS): 30291

Country: PEOPLES REPUBLIC OF CHINA (PRC)

Current information (Y/N): Y

RCS size: SMALL

Orbital parameters

Period: 99.263 minutes

Inclination: 97.2407 deg

SMA: 7101.538 km

Apoapsis: 807.087 km

Periapsis: 639.718 km

RAAN: 96.9776 deg

Eccentricy: 0.011784

Argument of periapsis: 164.7704 deg

Mean anomaly: 321.0427 deg

Mean motion: 14.50688475 rev/day

Mean motion (dot): 0.00006734 rev/day2

B* drag term: 0.0015749 1/REarth

Two-line elements (TLE)

Creation date: July 5, 2025, 5:45 p.m.

Reference frame: TEME

Reference center: EARTH

Epoch: July 5, 2025, 6:25 a.m. UTC

TLE line 0: 0 FENGYUN 1C DEB

TLE line 1: 1 30291U 99025ZC 25186.26793472 .00006734 00000-0 15749-2 0 9990

TLE line 2: 2 30291 97.2407 96.9776 0117840 164.7704 321.0427 14.50688475953789

Live tracking on map

Real-time ground track for satellite FENGYUN 1C DEB.

In-orbit conjunctions

A list of the most updated potential collisions computed for object FENGYUN 1C DEB.

Target Orbit TCA Probability of collision Miss distance Type
CZ-6A DEB LEO 2024-11-11 11:53:41 0.0005993315 740.0 (m) DEBRIS
SL-8 R/B LEO 2024-07-29 23:03:39 0.0001770595 289.0 (m) ROCKET BODY
CZ-6 R/B LEO 2024-07-10 10:33:53 0.0001051161 764.0 (m) ROCKET BODY

Associated space launch

Chinese polar orbiting meteorological satellite

FENGYUN 1C DEB was lifted into orbit during the mission ‘Long March 4B | Feng Yun 1C’, on board a Long March 4B space rocket.

The launch took place on May 10, 1999, 1:33 a.m. from Launch Complex 7.

For more information about the launch, click the button.

Launch to space Long March 4B | Feng Yun 1C
Long March 4B | Feng Yun 1C

Agency: N/A

Status: Launch Successful

Launch date: May 10, 1999, 1:33 a.m. UTC

Rocket: Long March 4B

Launch pad: Launch Complex 7

Location: Taiyuan Satellite Launch Center, People's Republic of China

...

Latest news about this satellite

There are no fresh news available about this satellite. Check back as we update our databases every day.


Newsletter sign-up

Weekly statistics, charts and insights to help you stay on top of the space industry.